TES-22

operational
NORAD ID: 62657 Int'l Des: NNA 2025-009 Owner: ARC Country: US
LEOCIRCULARRETROGRADESSO

About TES-22

Description loading...

Live Position

Loading 3D Globe...

Upcoming Passes

Altitude History

Altitude vs Time

uPlot chart will show altitude changes over time

Two-Line Element Set

1 62657U 25009BA 26062.14873705 .00010935 00000-0 41464-3 0 9993
2 62657 97.4007 144.6409 0000444 336.9399 23.1820 15.27044405 62733
Epoch: Mar 3, 2026 • Age: 22 hours

Current Status

Altitude 500.5 km
Velocity 7.61 km/s
Sub-Earth Point -41.94°S, 16.52°E
Launch Date Jan 14, 2025
Age 1.1 years
Type other

Technical Details

Classification Payload
Mass 1.00 kg
Dry Mass 1.00 kg
Total Mass 1.00 kg
Length 0.10 m
Diameter 0.10 m
Span 0.10 m
Shape Box
Manufacturer ARC
Bus Type Cubesat 1U
Phase Status In Orbit
Owner/State ARC/US

Large Constellations

Loading constellations...